Location: *
(49.3500°N, 12.6000°E)
Time: 23:59:45
(UTC+00:00)

Cosmos 2084 Rocket - Pass Details

Date: 18 October 2019
Orbit: 572 x 609 km, 62.8° (Epoch: 14 November)

Event Time Altitude Azimuth Distance (km) Brightness Sun altitude
Rises 18:03:31 0° 317° (NW) 2,876 7.8 -18.5°
Reaches altitude 10° 18:05:50 10° 322° (NW) 1,966 6.8 -18.9°
Maximum altitude 18:10:14 59° 42° (NE) 704 3.6 -19.6°
Enters shadow 18:11:03 49° 87° (E) 782 3.6 -19.7°
